Regional Weather Roundup
Issued by NWS

Home | Current Version | Previous Version | Graphics & Text | Print | Product List | Glossary On
Versions: 1 2 3 4 5 6 7 8 9 10 11 12 13 14 15 16 17 18 19 20 21 22 23 24 25 26 27 28 29 30 31 32 33 34 35 36 37 38 39 40 41 42 43 44 45 46 47 48 49 50
000
ASUS45 KBOI 290910
RWRID
WEATHER ROUNDUP FOR IDAHO
NATIONAL WEATHER SERVICE BOISE ID
300 AM MDT SUN MAR 29 2015

NOTE: "FAIR" INDICATES FEW OR NO CLOUDS BELOW 12000 FEET
WITH NO SIGNIFICANT WEATHER AND/OR OBSTRUCTIONS TO VISIBILITY

IDZ012-014-291000-
SOUTHWEST IDAHO


CITY           SKY/WX    TMP DP  RH WIND       PRES   REMARKS
BOISE          PTCLDY    42  29  59 SE9       30.32S
CALDWELL       PTCLDY    36  25  64 SE5       30.34S WCI  32
MOUNTAIN HOME  CLEAR     36  23  60 NW5       30.33S WCI  32
$$

IDZ016-017-291000-
SOUTHCENTRAL IDAHO


CITY           SKY/WX    TMP DP  RH WIND       PRES   REMARKS
BURLEY         CLEAR     37  20  50 W7        30.32S WCI  32
JEROME         CLEAR     37  22  54 SE6       30.34R WCI  32
TWIN FALLS     CLEAR     41  22  46 S14       30.33R
$$

IDZ019>023-291000-
SOUTHEAST IDAHO


CITY           SKY/WX    TMP DP  RH WIND       PRES   REMARKS
IDAHO FALLS    CLEAR     34  20  56 CALM      30.33S
POCATELLO      CLEAR     39  20  46 SW13      30.33R WCI  31
REXBURG        CLEAR     36  21  54 S8        30.32S WCI  30
$$

IDZ006-010-011-018-031-032-291000-
CENTRAL IDAHO MOUNTAINS


CITY           SKY/WX    TMP DP  RH WIND       PRES   REMARKS
MCCALL         PTCLDY    28  24  85 CALM      30.32S
HAILEY         CLEAR     36  21  55 NW8       30.35S WCI  29
STANLEY          N/A     26  20  77 CALM      30.37S
SALMON         CLEAR     28  21  74 CALM      30.35R
CHALLIS        CLEAR     29  19  66 VRB3      30.34F
$$

IDZ002-004-006-007-026-291000-
NORTHERN IDAHO


CITY           SKY/WX    TMP DP  RH WIND       PRES   REMARKS
LEWISTON       MOCLDY    43  34  70 CALM      30.32F
LOWELL           N/A     41  39  93 CALM      30.40R
COEUR D`ALENE  CLOUDY    41  34  75 S5        30.30S
MULLAN PASS    MOCLDY    30  29  96 VRB5      30.27F WCI  25
$$



USA.gov is the U.S. government's official web portal to all federal, state and local government web resources and services.